Regional Weather Roundup
Issued by NWS Pendleton, OR

Current Version | Previous Version | Text Only | Print | Product List | Glossary On
Versions: 1 2 3 4 5 6 7 8 9 10 11 12 13 14 15 16 17 18 19 20 21 22 23 24 25 26 27 28 29 30 31 32 33 34 35 36 37 38 39 40 41 42 43 44 45 46 47 48 49 50
000
ASUS46 KPDT 251310
RWRPDT
PENDLETON REGIONAL WEATHER ROUNDUP
NATIONAL WEATHER SERVICE PENDLETON OREGON
600 AM PDT THU AUG 25 2016

NOTE: FAIR INDICATES FEW OR NO CLOUDS BELOW 12,000 FEET WITH NO
SIGNIFICANT WEATHER AND/OR OBSTRUCTIONS TO VISIBILITY.

# INDICATES UNOFFICIAL STATION AND DATA

WAZ520-251410-
EAST SLOPES OF WASHINGTON CASCADES

CITY            SKY/WX      TMP DP  RH  WIND    PRES   REMARKS
#CLE ELUM HS    N/A         47  39  74  CALM    30.13R
#CLE ELUM 2NW   N/A         46  39  76  NW1     N/A
#GLENWOOD       N/A         41  38  89  CALM    30.11F
#MANASTASH CYN  N/A         54  34  47  CALM    30.17S
#NELSON 3SW     N/A         53  40  61  CALM    30.29S
#NILE           N/A         49  40  71  W2      29.43F
#RONALD 2NW     N/A         58  N/A N/A N1      30.08R
#TEANAWAY 4NE   N/A         46  38  73  CALM    N/A
#TROUT LAKE 1NE N/A         47  40  76  CALM    30.10S
#TROUT LAKE 1E  N/A         47  42  83  CALM    30.12F
$$

WAZ521-251410-
SIMCOE HIGHLANDS

CITY            SKY/WX      TMP DP  RH  WIND    PRES   REMARKS
#CENTERVILLE 1SWN/A         46  31  56  CALM    30.06R
#GOLDENDALE 1NE N/A         50  25  37  CALM    N/A
#GOLDENDALE 4W  N/A         47  40  76  E2      30.16S
#GOODNOE HILLS  N/A         67  39  36  SE2     30.01S
#LYLE 6NE       N/A         61  40  46  NE3     30.03S
$$

WAZ026-251410-
KITTITAS VALLEY

CITY            SKY/WX      TMP DP  RH  WIND    PRES   REMARKS
ELLENSBURG AP   CLEAR       51  42  71  NE6     30.17R
#ELLENSBURG CWU N/A         52  44  74  CALM    30.06R
#ELLENSBURG 3NE N/A         52  44  74  CALM    30.16R
#ELLENSBURG     N/A         51  47  86  N2      N/A
#ELLENSBURG 1E  N/A         47  N/A N/A CALM    N/A
#KITTITAS 4N    N/A         55  41  59  CALM    30.11R
#KITTITAS 3S    N/A         44  41  89  CALM    30.10S
#THORP 6N       N/A         57  39  51  NE3     30.11R
$$

WAZ027-251410-
YAKIMA VALLEY

CITY            SKY/WX      TMP DP  RH  WIND    PRES   REMARKS
YAKIMA AIRPORT  CLEAR       54  41  61  W8      30.14S
YAKIMA-VAGABOND N/A         55  38  53  NE3     30.12S
#DONALD 2NE     N/A         66   7  10  W1      28.95F
#GRANDVIEW      N/A         56  46  69  CALM    30.09R
#MABTON         N/A         54  43  66  CALM    30.10R
#NACHES 2SW     N/A         62  43  50  W6      30.16S
#TERRACE HTS    N/A         57  45  64  CALM    30.04S
#TOPPENISH      N/A         58  45  62  CALM    29.99F
#WEST VALLEY    N/A         60  43  53  CALM    30.07S
#WHITE SWAN 5E  N/A         53  43  69  CALM    30.08F
#WILEY CITY 3W  N/A         56  35  45  CALM    30.10F
$$

WAZ028-251410-
LOWER COLUMBIA BASIN...WASHINGTON

CITY            SKY/WX      TMP DP  RH  WIND    PRES   REMARKS
PASCO           CLEAR       58  47  67  N6      30.11R
PROSSER AWOS    N/A         50  46  86  CALM    30.14S
RICHLAND AWOS   CLEAR       59  47  64  CALM    30.10R
#BENTON CITY    N/A         56  46  69  CALM    29.98R
#CONNELL 5N     N/A         53  41  64  NW5     30.07R
#CONNELL 5NW    N/A         55  29  37  CALM    30.03S
#ELTOPIA 6NW    N/A         59  48  67  CALM    29.08R
#KAHLOTUS       N/A         56  39  53  S2      30.06S
#KENNEWICK 3S   N/A         59  48  67  CALM    30.07S
#PATERSON       N/A         58  52  80  CALM    30.05R
#SAGEMOOR 2W    N/A         59  47  64  N5      29.92R
#TOUCHET 2S     N/A         44  40  86  CALM    30.06R
#WEST PASCO     N/A         57  46  67  CALM    30.08F
$$

WAZ029-251410-
FOOTHILLS OF THE BLUES...WASHINGTON

CITY            SKY/WX      TMP DP  RH  WIND    PRES   REMARKS
WALLA WALLA AP  CLEAR       60  41  49  S7      30.11R
#CLYDE 6NW      N/A         58  40  51  CALM    30.05R
#DAYTON SCHOOL  N/A         52  36  54  CALM    30.11S
#LOWDEN 2SE     N/A         47  44  89  CALM    30.06R
#PLEASANT VIEW 1N/A         57  40  53  CALM    30.08S
#PRESCOTT       N/A         53  42  66  CALM    30.06R
#WHITMAN COLLEGEN/A         59  44  57  E3      30.10R
#WAITSBURG 8N   N/A         62  15  16  NE6     30.06S
#WHITMAN MISSIONN/A         49  45  86  CALM    30.08R
$$

WAZ030-251410-
BLUE MOUNTAINS...WASHINGTON

CITY            SKY/WX      TMP DP  RH  WIND    PRES   REMARKS
#DIXIE 5SE      N/A         65  40  40  CALM    30.09R
$$

ORZ009-041-WAZ024-251410-
COLUMBIA RIVER GORGE

CITY            SKY/WX      TMP DP  RH  WIND    PRES   REMARKS
HOOD RIVER AP   CLEAR       55  43  64  S3      30.13R
THE DALLES AP   CLEAR       57  41  55  CALM    30.10R
#ARLINGTON AIRPON/A         60  39  46  CALM    30.07R
#LYLE           N/A         60  40  47  NE5     30.11R
#MARYHILL 2W    N/A         N/A N/A N/A CALM    N/A
#MOSIER 1S      N/A         58  29  33  CALM    30.12R
#MURDOCK        N/A         63  45  52  W10     30.05S
#SMITHVILLE     N/A         59  43  55  W2      30.11R

$$

ORZ510-251410-
NORTH CENTRAL OREGON

CITY            SKY/WX      TMP DP  RH  WIND    PRES   REMARKS
#ANTELOPE       N/A         49  35  58  NE2     29.95R
#DUFUR 9E       N/A         68  38  33  CALM    30.09S
#GRASS VALLEY 1SN/A         61  37  41  CALM    30.09S
#MAUPIN SCHOOL  N/A         56  37  49  CALM    30.16R
#TYGH VALLEY 2NEN/A         52  37  56  N1      30.08S
#WAPANITIA AIRPON/A         54  38  55  CALM    30.09R
#WASCO 5NE      N/A         59  38  45  CALM    30.06R
$$

ORZ511-251410-
CENTRAL OREGON

CITY            SKY/WX      TMP DP  RH  WIND    PRES   REMARKS
BEND AIRPORT    N/A         N/A N/A N/A MISG    N/A
MADRAS AIRPORT  CLEAR       54  41  61  S6      30.19R
PRINEVILLE AP   CLEAR       43  28  55  CALM    30.20R
REDMOND AIRPORT CLEAR       45  29  53  SE3     30.19R
#ASHWOOD SCHOOL N/A         47  34  60  CALM    30.13S
#BEND 1SW       N/A         42  32  67  NE1     N/A
#BEND-AWBREY    N/A         55  39  55  N1      30.06S
#CULVER         N/A         49  37  63  CALM    30.02R
#CULVER 8W      N/A         49  33  54  CALM    30.15R
#LAKE BILLY CHINN/A         53  N/A N/A CALM    30.20R
#MADRAS 4S      N/A         52  12  20  S6      30.22S
#POWELL BUTTE 3EN/A         47  32  56  S3      N/A
#POWELL BUTTE   N/A         50  34  54  SE1     30.05S
#PRINEVILLE 3N  N/A         43  38  82  CALM    30.17R
#WARM SPRINGS   N/A         50  36  58  CALM    30.13R

$$


ORZ509-251410-
EAST SLOPES OF OREGON CASCADES

CITY            SKY/WX      TMP DP  RH  WIND    PRES   REMARKS
SISTERS AWOS    N/A         39  28  64  CALM    30.15S
#BLUE BOX PASS  N/A         61  N/A N/A CALM    N/A
#CAMP SHERMAN   N/A         37  29  72  CALM    30.20R
#LA PINE 4NW    N/A         32  24  72  CALM    30.14S
#LAVA BUTTE DOT N/A         42  32  67  CALM    N/A
#SISTERS AIRPOR N/A         39  32  76  CALM    30.17S
#SISTERS ODOT   N/A         41  N/A N/A CALM    N/A
#SISTERS 3N     N/A         38  22  52  CALM    30.10S
#SUNRIVER       N/A         39  32  76  CALM    30.11S
#SUTTLE LK DOT  N/A         42  38  86  N15G25  N/A    WCI 34
#TUMALO 3W      N/A         60  38  44  W3      29.93S

$$

ORZ044-251410-
LOWER COLUMBIA BASIN...OREGON

CITY            SKY/WX      TMP DP  RH  WIND    PRES   REMARKS
HERMISTON       CLEAR       52  42  69  SE3     30.08S
#BOARDMAN SCHOOLN/A         51  43  74  SE1     30.08R
#ECHO 8SW       N/A         55  43  64  SW1     30.09S
#UMATILLA       N/A         53  45  74  CALM    30.00R
$$

ORZ507-251410-
NORTHERN FOOTHILLS OF THE BLUES

CITY            SKY/WX      TMP DP  RH  WIND    PRES   REMARKS
PENDLETON AIRPT CLEAR       55  39  55  SE7     30.10S
#ADAMS 3WNW     N/A         46  36  68  CALM    30.07R
#ATHENA         N/A         46  39  76  CALM    30.09R
#CAYUSE         N/A         58  41  53  E2      30.05R
#HELIX SCHOOL   N/A         48  38  68  CALM    30.06R
#HELIX 3N       N/A         52  39  61  S1      30.09R
#HOLDMAN 5SE    N/A         50  39  66  SE3     30.10R
#HOLDMAN 6E     N/A         56  40  55  CALM    29.86S
#M-F GROVE ELEM N/A         54  39  57  CALM    30.08R
#M-FREEWATER 5SEN/A         57  42  57  CALM    30.10R
#PENDLETON DNTN N/A         51  34  52  CALM    30.13S
#PDT AQUATIC CTRN/A         51  32  48  CALM    30.14S
#PDT SUNRIDGE   N/A         47  39  74  CALM    30.12S
#PENDLETON 7NW  N/A         49  37  63  CALM    31.42S
#PILOT ROCK 1S  N/A         57  38  49  CALM    30.13R
#PILOT ROCK     N/A         56  39  53  SW2     30.12R
#TUTUILLA       N/A         46  39  76  CALM    30.09S
#UMAPINE 2E     N/A         50  44  80  CALM    30.07R
#WESTON SCHOOL  N/A         59  38  45  CALM    29.98S

$$

ORZ508-251410-
SOUTHERN FOOTHILLS OF THE BLUES

CITY            SKY/WX      TMP DP  RH  WIND    PRES   REMARKS
LEXINGTON       CLEAR       55  39  55  E9      30.15S
#AJAX           N/A         65  32  29  CALM    27.88S
#CONDON SCHOOL  N/A         62  41  46  N1      30.11S
#CONDON 5W      N/A         62  37  39  N6      30.15R
#FOSSIL SCHOOL  N/A         48  37  65  CALM    30.11R
#HEPPNER EOC    N/A         55  40  57  E9      30.00S
#HEPPNER 4NE    N/A         54  39  57  E3      30.06S
#LEXINGTON 2SE  N/A         57  41  55  SE8     30.09R
#MIKKALO        N/A         56  34  43  SE5     30.23R
#OLEX 4N        N/A         58  39  49  S6      30.08S
#RUGGS 5NE      N/A         53  37  54  SE2     30.33S
#RUGGS 2SW      N/A         57  38  49  S7      30.07S

$$

ORZ502-503-251410-
BLUE MOUNTAINS

CITY            SKY/WX      TMP DP  RH  WIND    PRES   REMARKS
MEACHAM         CLEAR       36  31  82  CALM    30.19S
#CUTSFORTH PARK N/A         40  36  85  CALM    29.98F
#GREENHORN 9SW  N/A         39  33  79  CALM    26.38S
#HARDMAN 10S    N/A         55  39  55  CALM    30.16S
#HEPPNER 15SE   N/A         49  38  66  CALM    30.12R
#LADD CREEK ODOTN/A         51  39  63  S2      N/A
#LONG CREEK HS  N/A         47  41  79  CALM    30.19S
#PIKES PEAK     N/A         66  40  38  CALM    27.99S
#TOLLGATE       N/A         47  39  74  CALM    30.07S
#TROY SCHOOL    N/A         51  42  71  CALM    29.95R
#UKIAH          N/A         37  34  89  CALM    30.06R
#WESTON 4E      N/A         61  39  44  CALM    29.99S
$$

ORZ505-251410-
JOHN DAY BASIN

CITY            SKY/WX      TMP DP  RH  WIND    PRES   REMARKS
JOHN DAY        CLEAR       51  36  56  E8      30.19S
#DAYVILLE SCHOOLN/A         51  35  54  CALM    30.13R
#MITCHELL       N/A         51  40  66  E2      30.33S
#MITCHELL 8NW   N/A         62  37  39  S1      30.23S
#MONUMENT HS    N/A         48  36  63  CALM    30.09R
#MT. VERNON 5SE N/A         51  37  59  CALM    30.15R
#SPRAY SCHOOL   N/A         48  N/A N/A CALM    N/A
$$

ORZ506-251410-
OCHOCO AND JOHN DAY HIGHLANDS

CITY            SKY/WX      TMP DP  RH  WIND    PRES   REMARKS
#BUCK CREEK DOT N/A         53  38  57  SW2     N/A
#KEYES SMT DOT  N/A         57  36  45  CALM    N/A
#PINE MTN OBS   N/A         50  35  56  CALM    N/A
#SENECA         N/A         35  N/A N/A CALM    N/A
#SENECA 9NW     N/A         37  30  75  CALM    30.06R
$$

ORZ049-251410-
GRANDE RONDE VALLEY

CITY            SKY/WX      TMP DP  RH  WIND    PRES   REMARKS
LA GRANDE       CLEAR       50  30  46  N8      30.15R
#COVE           N/A         47  41  79  CALM    30.17R
#COVE SCHOOL    N/A         46  39  76  CALM    30.16R
#COVE 6NW       N/A         44  36  73  CALM    30.03S
#ELGIN 3N       N/A         45  35  68  CALM    30.13S
#IMBLER SCHOOL  N/A         52  37  56  NE3     30.10S
#ISLAND CITY 4N N/A         59  50  72  CALM    30.06S
#LA GRANDE ELEM N/A         61  40  46  W2      30.15S
#UNION 1S       N/A         47  39  74  CALM    29.97R
$$

ORZ050-251410-
WALLOWA COUNTY

CITY            SKY/WX      TMP DP  RH  WIND    PRES   REMARKS
JOSEPH AIRPORT  CLEAR       46  37  71  CALM    30.21R
#IMNAHA SCHOOL  N/A         57  41  55  N3      30.20S
#IMNAHA 10S     N/A         52  39  61  SW5     30.15S
#JOSEPH 3N      N/A         40  33  76  NE2     30.19S
#JOSEPH 3W      N/A         50  39  66  SW3     30.03S
#LOSTINE        N/A         41  37  86  CALM    29.91R
#LOSTINE 3SE    N/A         42  35  76  SE1     30.17R
#MT HOWARD 8000 N/A         45  33  63  CALM    30.36R
#PROMISE 1S     N/A         50  39  66  CALM    30.16R
#WALLOWA SCHOOL N/A         40  37  89  CALM    30.14S



$$



USA.gov is the U.S. government's official web portal to all federal, state and local government web resources and services.